Date,TemperatureHighF,TemperatureAvgF,TemperatureLowF,DewpointHighF,DewpointAvgF,DewpointLowF,HumidityHigh,HumidityAvg,HumidityLow,PressureMaxIn,PressureMinIn,WindSpeedMaxMPH,WindSpeedAvgMPH,GustSpeedMaxMPH,PrecipitationSumIn
2013-1-26,14.8,14.8,14.8,-4.9,-4.9,-4.9,41,41,41,30.19,30.19,2,1,2,0.00
2013-1-27,32.6,24.3,13.1,2.3,-0.3,-2.6,51,34,24,30.38,29.92,6,1,6,0.15
2013-1-28,24.8,24.4,24.1,21.6,20.3,18.5,88,84,79,30.10,29.99,2,1,2,0.00
2013-1-29,33.8,28.2,23.2,29.6,24.1,19.5,91,84,77,30.17,29.99,4,1,4,0.09
2013-1-30,56.7,50.7,32.8,54.0,48.3,30.6,94,92,89,29.97,29.45,15,5,15,0.05
2013-1-31,58.7,46.3,29.9,55.9,36.2,13.2,91,70,39,29.56,29.01,24,6,24,0.61
2013-2-1,30.4,25.3,19.6,13.2,6.4,2.2,63,45,35,30.04,29.68,11,3,11,0.00
2013-2-2,30.8,25.2,20.9,8.7,5.7,2.6,53,43,35,30.20,30.02,10,3,10,0.00
2013-2-3,26.5,24.3,21.8,18.7,17.1,15.3,83,74,67,29.94,29.73,4,1,4,0.00
2013-2-4,27.4,22.6,18.0,13.1,8.2,3.3,77,54,37,29.90,29.75,14,2,14,0.00
2013-2-5,25.2,23.2,22.0,17.6,16.0,13.8,82,74,62,29.94,29.91,4,1,4,0.00
2013-2-6,33.1,28.7,23.2,19.5,8.5,5.1,85,43,39,30.19,29.95,8,2,8,0.02
2013-2-7,24.8,23.5,22.3,6.2,3.4,1.2,49,42,37,30.46,30.44,7,2,7,0.00
2013-2-8,25.0,21.5,15.8,20.4,15.5,6.1,87,78,50,30.44,29.60,20,5,20,0.00
2013-2-9,23.8,17.6,12.6,15.8,10.4,0.1,87,74,57,30.17,29.58,14,4,15,0.00
2013-2-10,47.2,32.3,22.0,9.9,3.8,-2.0,47,31,17,30.37,30.31,6,1,6,0.08
2013-2-11,43.0,36.2,25.6,41.1,32.5,15.7,93,86,67,30.20,29.63,6,2,6,0.08
2013-2-12,42.3,37.5,32.6,28.3,25.8,22.8,72,63,53,29.88,29.67,9,2,9,0.00
2013-2-13,44.5,36.3,27.9,24.6,21.7,19.2,72,56,41,29.86,29.72,5,1,5,0.00
2013-2-14,48.8,38.0,25.6,22.7,19.5,16.7,70,48,33,29.97,29.79,7,1,7,0.00
2013-2-15,54.0,42.4,29.9,33.0,30.0,26.5,91,63,43,29.98,29.89,12,3,12,0.00
2013-2-16,38.2,33.4,26.3,28.4,24.0,14.9,86,69,54,29.94,29.70,6,1,6,0.02
2013-2-17,26.1,19.5,13.1,18.1,6.1,-2.3,83,57,38,29.70,29.42,12,4,12,0.02
2013-2-18,31.3,19.4,10.6,1.2,-1.7,-5.6,54,41,24,30.12,29.70,11,3,11,0.00
2013-2-19,45.4,37.7,19.3,38.9,27.5,4.6,92,68,48,30.10,29.59,13,3,13,0.24
2013-2-20,38.5,30.1,23.4,34.9,17.0,8.0,89,59,39,29.75,29.56,12,3,12,0.01
2013-2-21,34.6,26.5,21.2,13.3,10.9,8.0,65,52,41,30.09,29.79,12,3,12,0.00
2013-2-22,43.6,33.3,20.5,20.7,18.5,13.5,77,56,38,30.36,30.29,8,2,8,0.00
2013-2-23,35.5,33.2,30.4,29.0,27.3,23.4,90,79,72,30.22,29.94,8,2,8,0.00
2013-2-24,34.6,32.6,31.1,31.3,29.9,28.5,92,90,86,29.86,29.70,8,2,8,0.12
2013-2-25,39.4,34.4,26.3,32.1,29.1,23.5,89,81,70,30.21,29.99,5,0,5,0.35
2013-2-26,44.8,38.0,32.0,35.1,28.0,25.0,86,68,53,30.31,30.20,6,2,6,0.21
2013-2-27,39.6,36.5,32.8,37.4,34.3,30.7,93,92,90,29.95,29.60,9,4,9,1.05
2013-2-28,45.5,38.2,32.8,38.2,33.3,29.2,93,83,72,29.63,29.53,3,0,3,0.01
2013-3-1,41.4,37.5,33.3,31.2,26.9,24.7,87,66,55,29.68,29.57,5,2,5,0.00
2013-3-2,40.0,36.6,32.8,26.8,25.4,23.9,72,64,57,29.68,29.63,5,1,5,0.00
2013-3-3,42.1,34.2,29.2,28.4,25.7,21.2,85,71,55,29.63,29.58,5,1,5,0.00
2013-3-4,40.9,33.1,24.7,23.2,20.5,16.6,72,60,48,29.73,29.60,10,3,10,0.00
2013-3-5,48.4,37.4,27.0,28.8,25.0,19.2,76,61,46,30.04,29.86,6,2,6,0.00
2013-3-6,36.9,33.6,31.0,31.8,29.8,27.8,92,86,73,30.07,30.02,12,6,12,0.05
2013-3-7,33.1,30.1,28.1,28.8,26.8,25.0,90,87,80,30.05,29.97,13,5,13,0.07
2013-3-8,37.6,31.5,27.9,30.1,26.7,21.3,91,83,53,30.14,29.92,12,4,12,0.01
2013-3-9,55.4,44.5,28.4,28.4,19.7,15.4,82,40,24,30.32,30.20,11,3,11,0.05
2013-3-10,52.9,42.7,29.2,32.1,28.7,25.5,86,59,43,30.39,30.29,7,2,7,0.01
2013-3-11,55.1,43.9,33.1,37.9,33.7,28.9,86,69,46,30.25,30.15,11,3,11,0.00
2013-3-12,53.6,48.3,39.2,49.5,45.2,36.8,94,89,77,30.06,29.73,14,3,14,0.55
2013-3-13,51.5,42.5,34.4,33.1,25.3,17.8,82,52,34,29.79,29.72,7,2,7,0.00
2013-3-14,33.1,28.1,20.7,18.2,10.7,4.0,61,48,38,29.83,29.71,9,2,9,0.00
2013-3-15,40.7,31.2,16.7,26.9,14.7,3.5,82,53,29,29.86,29.64,9,2,9,0.00
2013-3-16,39.8,33.5,29.2,25.6,13.7,7.7,80,46,28,29.86,29.68,5,1,5,0.00
2013-3-17,38.7,31.5,23.6,16.4,8.0,1.7,59,38,24,30.20,29.86,9,2,9,0.00
2013-3-18,35.6,30.5,27.4,22.9,14.1,0.7,83,55,24,30.26,30.18,6,2,6,0.00
2013-3-19,33.8,30.2,26.3,30.9,27.5,22.4,91,89,81,30.18,29.63,8,3,8,0.05
2013-3-20,39.2,31.3,23.4,20.4,17.6,15.4,78,58,44,29.80,29.73,9,2,9,0.28
2013-3-21,41.8,32.2,23.4,24.7,18.5,12.4,83,59,38,29.78,29.61,6,1,6,0.07
2013-3-22,41.4,32.5,22.1,21.1,16.9,12.4,66,53,38,29.75,29.63,16,2,16,0.00
2013-3-23,41.6,36.4,29.2,21.2,18.0,15.5,72,47,38,29.79,29.67,10,3,10,0.00
2013-3-24,52.2,41.7,29.2,23.9,21.6,19.2,66,46,32,29.83,29.73,7,2,7,0.00
2013-3-25,39.4,36.1,34.4,27.8,26.8,25.7,73,69,62,29.57,29.52,9,5,9,0.00
2013-3-26,50.2,41.0,33.1,27.9,23.3,18.7,70,50,34,29.78,29.63,5,1,5,0.00
2013-3-27,49.0,44.5,32.9,27.3,24.0,18.9,59,45,36,29.86,29.77,6,2,6,0.00
2013-3-28,46.1,42.0,34.0,30.3,28.8,27.5,86,60,49,30.03,29.91,6,1,6,0.00
2013-3-29,55.8,48.6,41.2,29.4,27.7,25.9,62,45,33,30.05,29.98,6,2,6,0.00
2013-3-30,59.0,50.6,41.0,28.4,18.5,14.0,54,29,20,30.10,30.01,8,2,8,0.00
2013-3-31,57.1,51.6,41.9,35.8,25.1,19.4,70,37,24,30.10,29.89,18,5,18,0.02
2013-4-1,44.1,38.4,34.4,36.5,22.2,10.0,75,53,36,29.76,29.61,11,3,11,0.00
2013-4-2,38.2,32.7,30.6,12.6,11.1,7.7,46,40,30,29.95,29.85,10,3,10,0.03
2013-4-3,45.7,36.6,27.0,13.8,11.0,7.2,55,36,24,30.12,29.96,12,3,12,0.00
2013-4-4,55.4,48.7,40.9,21.1,17.5,13.9,44,30,20,30.10,30.07,9,4,9,0.00
2013-4-5,59.9,51.0,41.0,24.1,20.9,17.6,50,32,20,29.86,29.66,8,3,8,0.00
2013-4-6,49.3,40.0,30.1,13.1,5.3,-0.3,47,25,15,30.31,30.14,10,2,10,0.00
2013-4-7,56.0,49.7,40.5,35.3,28.2,19.4,65,44,30,30.27,30.00,19,7,19,0.02
2013-4-8,69.5,60.6,52.9,39.8,35.6,32.6,61,41,28,30.09,30.03,5,2,5,0.00
2013-4-9,70.9,59.8,44.5,52.0,46.1,40.2,91,63,38,29.94,29.88,11,3,11,0.01
2013-4-10,62.6,53.5,47.2,50.2,46.4,42.8,88,78,56,29.96,29.85,5,1,5,0.13
2013-4-11,50.8,46.0,41.2,29.1,26.9,22.7,53,47,43,30.11,30.02,8,3,8,0.00
2013-4-12,37.1,35.5,34.7,33.6,32.1,29.2,92,88,76,30.13,29.81,10,4,10,0.35
2013-4-13,50.4,46.4,32.9,35.6,32.9,30.9,92,60,48,29.95,29.81,4,1,4,0.00
2013-4-14,53.5,44.8,37.4,35.5,28.7,23.5,79,55,38,30.16,29.92,8,2,8,0.00
2013-4-15,50.0,48.1,46.8,32.5,31.8,31.0,55,53,50,30.37,30.33,5,2,5,0.00
2013-4-16,57.6,55.0,53.6,48.3,46.9,45.3,82,74,64,30.16,30.09,13,6,13,0.00
2013-4-17,68.4,58.4,48.1,40.8,29.3,26.2,75,35,22,30.31,30.13,6,1,6,0.00
2013-4-18,57.2,52.1,40.5,39.3,30.4,26.5,65,45,33,30.40,30.20,6,3,6,0.00
2013-4-19,64.6,62.5,61.4,60.0,59.1,58.3,91,88,84,29.79,29.71,15,7,15,0.00
2013-4-20,58.7,49.9,40.0,42.2,31.2,20.5,89,51,32,30.20,29.78,11,2,11,0.02
2013-4-21,58.3,48.8,36.0,23.1,19.6,15.6,50,32,21,30.60,30.46,9,2,9,0.00
2013-4-22,49.9,42.4,38.5,31.9,30.4,28.5,69,63,49,30.61,30.60,9,3,9,0.00
2013-4-23,39.1,38.5,38.3,36.5,36.2,35.9,92,91,91,30.25,30.18,10,4,10,0.00
2013-4-24,78.1,65.3,40.3,45.6,43.1,36.4,92,48,25,29.99,29.82,12,5,12,0.01
2013-4-25,64.6,55.4,44.8,34.5,23.3,20.9,66,30,21,30.24,30.03,5,1,5,0.00
2013-4-26,57.6,51.8,47.3,36.4,34.1,32.1,59,51,45,30.41,30.34,6,3,6,0.00
2013-4-27,71.3,59.5,47.9,39.4,34.5,30.8,63,41,25,30.40,30.28,9,2,9,0.00
2013-4-28,74.2,61.7,45.7,40.4,32.6,25.2,69,35,23,30.34,30.21,10,3,10,0.00
2013-4-29,72.7,60.6,52.9,44.5,32.9,21.2,69,37,26,30.28,30.19,9,3,9,0.00
2013-4-30,76.9,62.9,48.8,33.7,24.8,9.0,55,25,14,30.36,30.26,8,2,8,0.00
2013-5-1,76.5,68.5,48.2,37.1,33.5,26.1,52,28,22,30.47,30.42,10,2,10,0.00
2013-5-2,83.9,67.0,48.4,45.9,39.5,32.8,70,40,21,30.48,30.33,9,2,9,0.00
2013-5-3,67.5,58.6,42.7,43.7,40.8,36.7,80,53,41,30.51,30.39,10,3,10,0.00
2013-5-4,69.1,60.7,46.1,44.1,37.6,27.2,65,43,30,30.34,30.28,7,2,7,0.00
2013-5-5,70.9,60.3,40.3,41.4,39.0,35.9,86,47,32,30.32,30.23,8,2,8,0.00
2013-5-6,81.0,65.4,40.5,45.9,40.7,35.9,88,44,23,30.28,30.15,6,2,6,0.00
2013-5-7,81.5,70.4,47.5,56.2,50.5,41.7,82,51,37,30.18,30.11,7,2,7,0.00
2013-5-8,66.8,63.1,61.0,60.1,59.0,56.7,92,86,73,30.12,30.07,8,2,8,0.45
2013-5-9,68.6,60.3,57.6,58.0,55.3,53.6,90,84,66,29.94,29.89,4,1,4,0.27
2013-5-10,82.8,76.4,69.5,53.8,52.0,50.0,54,43,34,29.95,29.92,5,1,5,0.00
2013-6-2,89.5,86.5,79.6,67.3,64.7,61.3,64,49,42,29.83,29.76,11,3,11,0.00
2013-6-3,84.1,74.6,64.6,63.7,59.8,55.5,89,61,49,29.86,29.79,4,0,4,0.52
2013-6-4,80.1,69.7,59.2,49.1,44.9,43.0,55,42,30,30.06,29.96,4,1,4,0.00
2013-6-5,74.5,67.5,50.2,49.0,47.0,42.6,75,49,39,30.16,30.11,5,1,5,0.01
2013-6-6,67.3,62.9,56.9,49.4,48.2,47.0,71,59,49,30.15,30.12,5,1,5,0.01
2013-6-7,55.4,53.6,51.5,53.1,51.3,49.1,93,92,92,29.96,29.88,5,1,5,0.71
2013-6-8,81.9,67.7,52.9,62.9,57.9,51.2,94,72,53,30.03,29.68,8,1,8,0.01
2013-6-9,79.2,72.1,58.1,56.9,54.9,52.2,86,56,45,30.14,30.03,6,1,6,0.00
2013-6-13,51.3,51.3,51.3,49.0,49.0,49.0,92,92,92,29.72,29.71,2,1,2,0.00
2013-6-14,81.7,72.4,64.4,58.5,53.7,51.5,65,53,37,29.78,29.73,4,0,4,0.00
2013-6-15,84.1,73.4,58.7,51.8,46.4,41.9,58,40,24,29.97,29.91,6,1,6,0.00
2013-6-16,76.0,71.9,70.0,60.3,54.6,49.5,70,55,42,29.96,29.74,8,2,8,0.00
2013-6-17,83.2,65.7,62.3,59.1,58.0,55.6,88,78,42,29.91,29.82,8,1,8,0.19
2013-6-18,59.8,58.8,58.3,57.2,56.2,55.7,92,91,90,29.95,29.92,2,0,2,0.08
2013-6-19,83.0,74.5,61.0,54.7,46.8,41.4,53,38,29,30.11,30.04,4,0,4,0.00
2013-6-20,85.5,75.7,66.6,55.7,52.6,47.6,68,46,29,30.26,30.22,5,1,5,0.00
2013-6-21,88.9,79.4,69.8,64.1,61.5,58.3,68,55,42,30.25,30.22,5,1,5,0.00
2013-6-22,87.5,79.3,68.8,62.1,58.8,53.7,71,51,33,30.24,30.14,8,2,8,0.00
2013-6-23,91.3,84.6,68.0,71.2,67.6,59.8,76,57,47,30.16,30.04,8,2,8,0.00
2013-6-24,94.5,80.0,70.4,72.5,67.5,63.6,81,67,49,30.00,29.92,5,1,5,0.04
2013-6-25,93.2,85.9,74.2,71.1,68.1,65.0,74,56,43,29.94,29.86,6,1,6,0.00
2013-6-26,79.0,76.3,70.9,67.6,66.6,64.7,84,72,68,29.86,29.81,3,0,3,0.00
2013-6-27,70.0,66.3,63.9,66.1,63.4,61.6,92,90,88,29.81,29.79,3,1,3,0.00
2013-6-29,85.0,77.5,70.2,68.8,66.9,65.3,86,71,55,29.76,29.59,10,2,10,0.00
2013-6-30,85.7,79.0,70.0,70.8,68.7,65.4,86,71,56,29.93,29.75,10,2,10,0.00
2013-7-1,76.0,74.7,73.4,71.0,70.2,69.4,87,86,84,30.09,30.04,4,1,4,0.00
2013-7-2,87.5,80.1,75.4,72.8,70.4,68.9,82,73,62,30.20,30.14,8,1,8,0.00
2013-7-3,89.8,81.2,71.6,73.8,71.4,67.9,88,73,59,30.22,30.17,5,2,5,0.00
2013-7-4,87.5,82.2,78.1,73.5,72.0,70.4,81,72,59,30.18,30.14,10,1,10,0.00
2013-7-5,98.8,89.5,78.8,75.4,72.5,69.9,79,59,42,30.19,30.08,6,2,6,0.00
2013-7-6,95.6,88.3,79.4,74.3,71.2,66.9,78,58,45,30.12,30.02,5,1,5,0.00
2013-7-7,95.9,87.3,77.0,74.7,71.9,67.4,78,61,48,30.06,29.96,5,1,5,0.00
2013-7-8,95.0,84.9,74.5,71.8,69.0,65.7,75,60,45,30.04,29.97,4,1,4,0.00
2013-7-9,77.6,72.3,66.8,69.6,67.1,63.5,90,84,76,30.11,30.06,3,0,3,0.00
2013-7-10,78.7,75.1,66.8,73.1,71.6,64.4,93,89,83,30.03,29.83,6,1,6,0.19
2013-7-11,84.4,77.3,72.7,71.6,68.3,66.4,91,74,65,29.93,29.84,3,0,3,0.12
2013-7-12,74.3,70.3,66.6,62.2,58.7,56.7,71,67,64,30.19,30.15,3,1,3,0.00
2013-7-13,76.1,73.3,70.6,69.9,68.5,65.8,90,85,80,30.33,30.30,2,0,2,0.00
2013-7-14,95.8,86.9,79.6,75.3,72.1,69.2,78,62,47,30.33,30.23,4,1,4,0.00
2013-7-15,97.2,90.7,83.2,73.3,70.0,66.6,59,51,45,30.15,30.13,5,0,5,0.00
2013-7-16,97.7,90.0,82.4,71.7,68.7,66.5,61,50,39,30.17,30.14,3,1,3,0.00
2013-7-17,95.8,82.8,71.8,74.6,70.4,65.2,81,68,46,30.20,30.05,4,1,4,0.00
2013-7-18,100.1,92.3,83.5,73.9,71.4,69.7,64,51,39,29.99,29.96,4,1,4,0.00
2013-7-19,96.1,89.7,85.0,76.9,75.9,73.1,76,65,49,29.81,29.77,6,2,6,0.00
2013-7-20,94.7,86.2,76.9,75.7,72.4,66.5,78,64,48,29.81,29.71,6,1,6,0.18
2013-7-21,92.5,84.1,73.8,67.2,64.7,60.5,73,53,37,29.98,29.95,3,1,3,0.00
2013-7-22,82.1,74.9,71.3,69.0,66.4,65.2,82,75,64,29.93,29.92,6,1,6,0.00
2013-7-23,74.7,73.7,73.3,71.3,70.7,69.7,91,90,89,29.62,29.59,4,0,4,0.00
2013-7-24,87.5,80.4,73.1,65.1,62.0,60.0,64,54,45,29.86,29.78,4,0,4,0.00
2013-7-25,59.4,58.9,58.1,55.8,55.4,54.4,90,88,84,30.11,30.09,3,0,3,0.04
2013-7-27,86.4,77.2,64.3,66.3,63.3,60.6,91,64,44,30.08,30.01,6,1,6,0.00
2013-7-28,88.6,79.6,67.3,69.0,66.2,62.3,84,64,47,30.03,29.98,4,1,4,0.00
2013-7-29,89.6,85.3,80.3,71.1,66.2,60.8,60,53,46,30.01,29.99,6,2,6,0.00
2013-7-30,87.3,76.1,60.8,62.1,57.3,52.3,75,53,39,30.13,30.07,6,1,6,0.00
2013-7-31,82.8,73.1,61.6,60.5,58.0,55.0,79,60,45,30.15,30.06,2,0,2,0.00
2013-8-1,67.9,67.3,65.7,61.4,60.5,59.5,82,79,75,29.94,29.92,9,1,9,0.00
2013-8-2,86.8,75.4,65.7,62.2,60.6,58.4,88,64,41,29.92,29.84,5,1,5,0.05
2013-8-3,84.1,73.2,65.0,63.2,61.0,58.7,87,66,46,29.90,29.82,5,1,5,0.00
2013-8-4,84.1,75.5,66.1,59.1,56.0,53.2,65,51,38,29.88,29.81,6,1,6,0.00
2013-8-5,81.4,73.3,56.7,49.9,46.1,43.7,78,39,28,30.04,29.98,3,1,3,0.00
2013-8-6,81.5,75.8,70.2,54.0,52.4,50.6,55,45,37,30.15,30.13,4,1,4,0.00
2013-8-7,79.4,74.8,69.7,57.2,55.8,54.5,62,52,45,30.14,30.13,7,1,7,0.00
2013-8-8,78.8,76.8,74.5,69.4,69.1,68.6,82,77,72,30.05,30.03,6,2,6,0.00
2013-8-9,75.2,73.9,72.5,73.1,71.7,70.1,94,93,92,29.84,29.79,3,1,3,0.00
2013-8-10,87.3,76.3,64.1,62.9,55.1,49.2,60,49,35,30.04,29.92,6,1,6,0.00
2013-8-11,84.4,74.9,61.2,57.7,54.4,49.4,66,50,37,30.10,30.03,4,1,4,0.00
2013-8-12,87.5,78.8,65.5,63.2,58.0,54.2,81,50,36,30.04,29.95,6,1,6,0.00
2013-8-13,76.0,70.7,66.2,64.7,62.9,60.9,85,77,67,29.75,29.72,4,1,4,0.00
2013-8-14,76.0,69.5,63.2,54.5,52.6,51.0,68,56,44,29.93,29.80,5,1,6,0.00
2013-8-15,78.8,71.3,63.7,52.6,51.1,50.1,62,50,39,30.12,30.05,3,0,3,0.00
2013-8-16,80.5,67.9,63.5,56.9,54.6,52.9,76,64,44,30.22,30.16,3,0,3,0.00
2013-8-17,85.7,74.8,67.0,61.7,58.6,56.0,73,58,41,30.30,30.25,3,0,3,0.00
2013-8-18,79.6,74.4,66.6,62.9,59.6,52.2,74,60,43,30.29,30.15,4,0,4,0.00
2013-8-19,77.0,74.9,72.5,59.9,59.0,57.4,64,58,52,30.02,29.99,4,0,4,0.00
2013-8-20,87.1,79.9,73.3,64.4,62.2,60.2,64,55,46,30.11,30.08,3,0,3,0.00
2013-8-21,88.0,79.8,64.8,65.2,62.3,58.2,80,56,46,30.15,30.07,3,1,3,0.00
2013-8-22,81.7,78.3,74.2,69.3,67.7,66.1,81,70,62,29.90,29.88,5,1,5,0.00
2013-8-23,79.6,69.8,61.7,56.9,52.3,49.3,65,54,42,30.15,30.00,4,1,4,0.00
2013-8-24,80.5,65.7,59.4,50.4,47.8,44.5,70,54,34,30.35,30.15,2,0,2,0.00
2013-8-25,86.8,76.4,66.1,60.9,52.7,48.1,68,45,29,30.38,30.21,5,1,5,0.00
2013-8-26,79.7,72.8,65.2,65.7,61.9,54.7,88,69,55,30.22,29.91,6,1,6,0.06
2013-8-27,88.6,76.4,67.7,72.2,67.4,62.7,91,75,50,29.93,29.86,4,1,4,0.18
2013-8-28,91.8,81.9,72.0,69.0,66.5,63.6,84,61,43,29.94,29.87,5,1,5,0.00
2013-8-29,67.7,64.1,61.0,64.4,60.5,57.5,91,88,86,30.08,30.05,4,1,4,0.00
2013-8-30,87.7,75.7,65.5,68.2,65.6,61.6,88,72,51,29.99,29.87,6,1,6,0.00
2013-8-31,78.5,76.2,72.5,71.1,70.3,68.6,88,82,78,29.86,29.82,6,1,6,0.00
2013-9-1,78.8,73.7,69.5,74.0,70.5,66.7,92,90,83,29.91,29.86,4,0,4,0.43
2013-9-2,74.3,73.0,72.0,70.1,69.4,68.6,90,88,85,29.76,29.74,3,0,3,0.00
2013-9-3,74.7,70.6,66.8,64.7,62.6,60.9,82,76,71,29.81,29.76,4,0,4,0.00
2013-9-4,78.8,72.2,66.4,55.5,53.9,52.6,65,53,44,29.93,29.90,6,1,6,0.00
2013-9-5,70.2,64.1,57.4,45.4,42.5,39.8,57,46,34,30.10,30.01,3,1,3,0.00
2013-9-6,74.3,65.3,48.4,47.4,42.0,37.1,72,44,32,30.25,30.15,6,1,6,0.00
2013-9-7,81.5,72.2,63.9,54.7,50.9,45.9,66,48,33,30.05,29.91,5,1,5,0.00
2013-9-8,76.3,71.0,63.5,60.8,53.5,40.9,80,56,33,29.93,29.78,5,2,5,0.00
2013-9-9,68.0,63.0,59.4,49.3,47.4,44.9,67,57,45,30.17,30.15,4,1,4,0.00
2013-9-10,74.5,72.1,70.7,67.9,67.5,66.9,90,85,78,30.09,30.05,5,1,5,0.00
2013-9-11,92.0,85.3,69.5,75.5,73.9,67.7,94,70,53,30.08,29.98,5,1,5,0.00
2013-9-12,80.5,76.8,73.3,70.7,69.8,68.7,86,79,70,29.76,29.72,7,2,7,0.00
2013-9-13,70.6,66.4,63.0,59.9,58.6,56.3,81,76,69,29.73,29.65,5,1,5,0.00
2013-9-14,63.2,57.9,53.6,52.2,49.6,47.6,80,74,66,30.07,29.99,2,0,2,0.00
2013-9-15,74.5,66.3,53.3,56.7,48.0,44.9,80,53,38,30.17,30.07,6,1,6,0.00
2013-9-16,64.3,58.5,52.2,50.5,46.2,39.3,70,64,58,30.17,30.07,5,1,5,0.00
2013-9-17,59.4,54.0,48.6,42.7,40.2,38.1,72,60,49,30.34,30.33,2,0,2,0.00
2013-9-18,69.8,63.4,45.9,47.3,45.0,39.2,77,52,38,30.30,30.16,3,0,3,0.00
2013-9-19,75.1,70.2,63.0,53.3,50.8,48.4,61,50,45,30.08,30.06,5,0,5,0.00
2013-9-20,76.7,71.0,65.3,54.6,52.9,51.1,68,53,44,30.04,30.02,5,1,5,0.00
2013-9-21,73.1,68.1,57.2,63.5,60.6,55.3,93,77,64,30.00,29.73,8,2,8,0.00
2013-9-22,72.0,64.8,57.6,64.7,53.8,45.6,92,69,48,29.77,29.68,7,1,7,0.53
2013-9-23,60.3,57.4,53.8,42.6,41.5,40.6,61,55,51,29.97,29.93,4,1,4,0.00
2013-9-24,65.2,59.3,53.5,42.7,40.0,37.6,64,49,40,29.91,29.85,5,1,5,0.00
2013-9-25,63.0,59.4,56.5,51.4,50.1,48.0,75,71,66,29.96,29.91,2,0,2,0.00
2013-9-26,54.4,53.5,52.9,48.2,46.9,45.7,80,78,77,30.11,30.04,1,0,1,0.00
2013-9-27,65.3,60.3,56.3,52.7,50.9,49.3,78,71,63,30.24,30.22,4,1,4,0.00
2013-9-29,75.2,66.5,50.6,51.3,45.5,40.7,71,47,32,30.21,30.13,5,1,5,0.00
2013-9-30,65.2,63.0,58.1,50.1,49.2,46.4,65,61,57,30.00,29.98,2,0,2,0.00
2013-10-1,75.4,70.8,67.0,56.1,54.9,54.1,65,57,51,29.91,29.88,4,0,4,0.00
2013-10-2,74.9,73.5,71.6,58.2,57.8,57.3,61,58,56,29.90,29.89,3,1,3,0.00
2013-10-3,79.6,66.7,54.2,52.2,47.8,43.7,80,53,33,30.10,30.03,3,0,3,0.00
2013-10-4,66.6,60.0,56.2,58.4,53.7,49.1,88,80,62,30.12,30.05,5,0,5,0.22
2013-10-5,69.3,64.6,58.7,60.0,57.8,54.1,91,79,69,30.13,30.07,3,0,3,0.00
2013-10-6,58.7,54.0,52.9,54.6,51.7,50.6,93,92,85,30.22,30.13,3,1,3,0.41
2013-10-7,71.8,70.0,67.1,65.8,65.1,63.6,90,85,81,29.86,29.82,10,3,10,0.23
2013-10-8,61.2,54.9,49.3,43.3,40.4,38.3,67,58,47,30.33,30.26,2,0,2,0.00
2013-10-9,58.3,51.9,47.3,45.4,43.0,41.7,82,72,62,30.38,30.36,3,0,3,0.00
2013-10-11,65.0,56.1,51.7,48.3,43.1,40.7,72,62,54,30.16,30.11,1,0,1,0.00
2013-10-12,57.4,53.7,50.0,53.1,49.7,42.6,92,87,72,30.38,30.15,4,1,4,0.00
2013-10-13,58.3,53.6,48.1,49.7,47.1,42.8,90,79,71,30.43,30.37,5,0,5,0.00
2013-10-14,61.2,56.9,54.2,42.2,39.9,38.0,61,53,44,30.28,30.24,2,0,2,0.00
2013-10-15,65.2,58.2,53.5,51.4,49.1,46.6,79,72,61,30.21,30.17,3,0,3,0.00
2013-10-16,56.5,54.9,54.0,49.9,49.1,48.6,84,81,78,29.99,29.96,2,0,2,0.00
2013-10-17,68.8,64.0,61.4,56.7,54.4,52.8,84,71,60,29.79,29.76,3,0,3,0.00
2013-10-18,61.6,54.0,50.4,44.1,41.7,38.9,70,63,51,29.92,29.81,2,0,2,0.00
2013-10-19,67.7,57.9,46.3,46.1,42.0,37.6,74,57,38,29.96,29.75,8,1,8,0.00
2013-10-20,63.5,55.5,49.9,46.5,35.8,31.2,76,49,33,29.96,29.74,8,1,8,0.03
2013-10-21,59.2,57.3,54.9,39.7,39.0,37.8,56,50,46,30.03,30.02,5,1,5,0.00
2013-10-22,60.1,55.5,50.0,48.6,45.5,40.5,72,69,63,29.76,29.72,4,1,4,0.00
2013-10-23,48.2,46.3,43.4,32.3,31.7,30.8,63,57,54,29.64,29.61,1,0,1,0.00
2013-10-24,50.6,44.4,40.1,26.6,24.8,22.0,58,47,34,29.89,29.78,7,1,7,0.00
2013-10-25,49.5,42.3,34.9,33.3,27.1,23.9,75,55,43,30.15,29.89,5,1,5,0.00
2013-10-26,56.2,47.7,35.5,33.7,29.2,24.3,70,50,31,30.14,29.87,9,2,9,0.00
2013-10-27,54.2,47.1,40.0,35.6,30.6,27.8,66,53,41,30.06,29.84,9,1,9,0.00
2013-10-28,57.1,47.3,36.4,35.1,31.0,23.9,68,54,42,30.33,30.06,8,1,8,0.00
2013-10-29,54.0,45.1,37.6,24.9,20.5,15.1,52,38,28,30.41,30.34,5,1,5,0.00
2013-10-30,52.0,46.8,43.2,38.6,36.3,34.5,74,67,60,30.22,30.17,2,0,2,0.00
2013-10-31,59.4,58.7,56.7,56.7,56.0,53.8,92,91,89,29.99,29.94,6,2,6,0.01
2013-11-1,63.2,60.8,58.7,53.6,53.3,52.7,81,76,70,29.60,29.51,5,2,5,0.00
2013-11-2,70.0,58.2,49.0,45.2,41.9,38.5,82,57,37,29.74,29.61,4,0,4,0.00
2013-11-3,52.0,43.4,37.1,32.0,23.7,15.3,72,47,29,30.25,30.05,6,1,6,0.00
2013-11-4,34.6,32.9,31.9,14.4,13.7,12.8,46,45,43,30.64,30.61,1,0,1,0.00
2013-11-5,45.4,42.8,40.7,30.3,28.7,27.5,65,57,52,30.54,30.53,3,1,3,0.00
2013-11-6,54.2,52.7,51.5,46.7,44.4,41.9,83,74,64,30.19,30.11,6,2,6,0.00
2013-11-7,45.4,44.0,41.9,40.5,38.1,35.4,83,80,77,29.81,29.73,6,1,6,0.01
2013-11-8,38.0,35.8,33.7,22.1,20.9,20.3,62,54,51,30.07,30.00,6,1,6,0.00
2013-11-9,46.1,41.3,36.4,24.7,23.3,21.3,59,49,42,30.20,30.09,5,1,5,0.00
2013-11-10,53.8,47.1,42.8,38.6,34.9,31.9,73,63,52,29.82,29.76,8,2,8,0.00
2013-11-11,45.7,45.0,44.5,28.4,27.8,27.1,52,51,49,29.96,29.93,7,2,7,0.00
2013-11-12,29.5,28.6,27.2,17.4,15.7,14.5,60,58,57,30.16,30.11,4,1,4,0.00
2013-11-13,29.2,28.5,27.9,12.7,11.4,10.5,52,48,46,30.22,30.20,5,1,5,0.00
2013-11-14,46.3,43.1,41.0,21.2,20.5,19.6,43,40,37,30.10,30.07,4,1,4,0.00
2013-11-15,54.0,47.6,44.1,28.9,25.2,21.4,53,42,29,30.17,30.13,5,1,5,0.00
2013-11-16,67.3,51.9,43.4,34.2,28.6,22.8,68,43,25,30.31,30.25,4,1,4,0.00
2013-11-17,53.8,47.8,44.1,45.3,41.6,37.7,89,79,69,30.28,30.03,5,1,5,0.02
2013-11-18,57.4,55.6,54.5,36.8,35.0,33.4,49,46,44,29.62,29.59,6,2,6,0.00
2013-11-19,44.5,36.1,31.5,20.8,18.4,16.8,55,49,39,30.20,30.01,7,2,7,0.00
2013-11-20,37.8,32.1,28.1,12.3,10.5,7.9,48,40,30,30.57,30.51,4,0,4,0.00
2013-11-21,41.6,41.2,41.0,27.7,27.5,26.7,58,58,57,30.45,30.43,4,1,4,0.00
2013-11-22,46.6,46.4,46.1,43.7,43.4,42.8,90,89,88,29.94,29.90,3,0,3,0.00
2013-11-23,42.7,35.2,26.8,27.6,18.9,14.5,79,52,37,29.91,29.80,9,2,9,0.00
2013-11-24,28.6,22.4,18.0,5.5,0.2,-4.6,57,38,26,30.09,29.91,13,4,13,0.00
2013-11-25,35.6,28.4,16.4,10.7,4.5,-6.9,48,36,25,30.33,30.28,7,2,7,0.00
2013-11-26,34.2,33.1,32.6,28.4,26.1,24.1,84,75,67,30.22,30.13,2,0,2,0.04
2013-11-27,43.6,40.2,36.9,40.6,37.1,33.1,90,89,87,29.37,29.25,10,2,10,0.11
2013-11-28,25.4,24.1,23.4,9.8,9.1,7.8,55,52,47,30.35,30.26,4,1,4,0.00
2013-11-29,26.8,21.9,18.4,8.6,5.1,3.8,53,48,44,30.69,30.61,4,1,4,0.00
2013-11-30,34.7,28.6,19.6,15.9,13.2,7.6,60,52,44,30.74,30.50,8,1,8,0.00
2013-12-1,35.5,34.0,31.3,32.1,30.7,27.1,90,88,84,30.23,30.06,4,0,4,0.08
2013-12-2,36.4,36.0,35.6,34.2,33.8,33.5,92,92,92,29.93,29.92,2,0,2,0.00
2013-12-3,40.3,38.6,36.0,32.8,31.7,30.1,79,76,72,29.93,29.91,3,1,3,0.00
2013-12-4,38.5,36.7,35.1,26.9,26.4,25.7,71,66,63,30.16,30.11,1,0,1,0.00
2013-12-5,50.6,43.2,40.1,48.0,40.9,37.4,94,91,89,30.03,29.93,9,1,9,0.01
2013-12-6,42.1,38.8,34.7,37.1,35.1,31.3,89,87,81,30.13,30.03,5,1,5,0.17
2013-12-7,38.7,31.3,25.7,29.7,23.8,17.3,84,74,63,30.42,30.19,6,1,6,0.11
2013-12-8,29.9,27.7,24.7,18.0,16.5,14.5,70,63,56,30.55,30.42,4,0,4,0.00
2013-12-9,34.6,34.3,34.2,32.5,32.4,32.3,93,93,93,29.89,29.89,3,1,3,0.00
2013-12-10,27.2,25.9,24.1,21.8,18.3,14.9,80,73,65,29.91,29.84,6,1,6,0.00
2013-12-11,24.3,23.5,22.7,17.8,17.3,16.6,78,77,75,30.12,30.11,7,2,7,0.00
2013-12-12,18.0,16.7,15.7,3.6,3.2,2.7,58,55,51,30.17,30.14,6,1,6,0.00
2013-12-13,26.3,22.9,18.5,17.6,14.2,10.8,72,69,63,30.26,30.08,8,1,8,0.00
2013-12-14,15.5,13.1,10.4,5.4,0.5,-3.0,73,57,48,30.53,30.45,6,2,6,0.00
2013-12-15,29.2,25.8,22.0,24.6,21.9,18.6,88,85,81,29.63,29.44,7,1,7,0.00
2013-12-16,21.6,19.9,18.7,7.8,7.1,6.3,61,57,52,30.12,30.04,6,1,6,0.00
2013-12-17,16.2,13.6,10.8,12.9,9.8,6.6,87,85,83,30.01,29.93,11,3,11,0.00
2013-12-18,27.0,25.9,25.0,19.2,18.7,18.2,75,74,72,30.04,29.97,5,1,5,0.00
2013-12-19,38.0,37.2,36.7,24.9,24.5,23.6,61,60,56,30.08,29.99,5,1,5,0.00
2013-12-20,46.4,42.7,40.7,32.0,31.3,30.5,69,64,57,29.97,29.92,10,4,10,0.00
2013-12-21,56.2,50.1,46.1,46.2,43.9,40.8,89,79,68,29.92,29.87,10,3,10,0.00
2013-12-22,64.6,48.8,34.7,59.1,44.5,32.0,90,85,72,29.96,29.77,13,3,13,0.00
2013-12-23,39.2,36.3,34.6,37.4,34.4,32.7,93,93,93,30.04,29.98,4,0,4,0.04
2013-12-24,31.9,30.0,27.4,18.5,17.1,15.8,69,59,53,30.14,30.05,2,1,2,0.00
2013-12-25,19.1,18.7,17.8,2.5,2.4,2.1,50,48,48,30.48,30.46,2,0,2,0.00
2013-12-26,29.2,27.2,26.3,24.7,22.7,21.8,84,83,83,30.16,30.07,5,1,5,0.00
2013-12-27,30.1,29.6,29.0,21.2,20.2,17.9,70,68,63,30.22,30.18,6,1,6,0.00
2013-12-28,47.7,37.9,31.9,26.6,25.1,23.4,71,61,43,30.11,29.99,6,2,6,0.02
2013-12-29,40.9,37.2,33.8,34.7,32.0,25.9,92,82,62,30.01,29.43,13,2,13,1.22
2013-12-30,37.8,31.9,22.5,32.6,18.0,9.0,92,58,41,30.07,29.54,7,2,7,0.00
2013-12-31,21.4,20.7,19.4,14.8,13.1,11.3,77,72,65,30.09,30.04,7,2,7,0.00
2014-1-1,23.2,19.7,17.3,7.9,6.2,4.6,62,56,48,30.33,30.29,2,0,2,0.00
2014-1-2,14.2,9.1,1.6,10.0,4.7,-2.9,84,82,80,30.20,29.82,14,6,14,0.00